Location: Sauerland
(51.1981°N, 7.8053°E)
Time: 15:26:29
(UTC+02:00)

ISS - Visible Passes

Search period start: 22 October 2019 00:00
Search period end: 31 October 2019 23:00
Orbit: 411 x 421 km, 51.6° (Epoch: 22 October)

Date Brightness Start Highest point End Pass type
(mag) Time Alt. Az. Time Alt. Az. Time Alt. Az.
26 Oct -1.2 06:48:34 10° SSW 06:51:05 20° SE 06:53:36 10° E visible
27 Oct -0.9 05:00:57 10° S 05:02:41 13° SE 05:04:25 10° ESE visible
27 Oct -2.9 06:35:33 10° SW 06:38:51 51° SSE 06:42:07 10° E visible
28 Oct -2.5 05:47:33 13° SW 05:50:18 37° SSE 05:53:26 10° E visible
29 Oct -2.1 05:01:15 25° SSE 05:01:46 26° SSE 05:04:39 10° E visible
29 Oct -3.7 06:34:51 10° WSW 06:38:14 80° SSE 06:41:36 10° E visible
30 Oct -0.7 04:14:50 14° ESE 04:14:50 14° ESE 04:15:43 10° E visible
30 Oct -3.5 05:47:44 24° WSW 05:49:36 64° SSE 05:52:56 10° E visible
31 Oct -3.0 05:01:14 47° SE 05:01:14 47° SE 05:04:15 10° E visible
31 Oct -3.8 06:34:16 10° W 06:37:39 82° N 06:41:02 10° E visible
